Regional Weather Roundup
Issued by NWS Sterling, VA

Home | Current Version | Previous Version | Graphics & Text | Print | Product List | Glossary On
Versions: 1 2 3 4 5 6 7 8 9 10 11 12 13 14 15 16 17 18 19 20 21 22 23 24 25 26 27 28 29 30 31 32 33 34 35 36 37 38 39 40 41 42 43 44 45 46 47 48 49 50
000
ASUS41 KLWX 260610
RWRLWX

REGIONAL WEATHER ROUNDUP
NATIONAL WEATHER SERVICE BALTIMORE MD/WASHINGTON DC
200 AM EDT SUN APR 26 2015

Note: "FAIR" indicates few or no clouds below 12,000 feet
with no significant weather and/or obstructions to visibility.
 TC=TEMPERATURE CELSIUS

 * =Non NWS site. Station does not report precipitation (e.g. rain,
    snow, etc.), thunder, or fog.

DCZ001-MDZ009-015-VAZ040>042-051-053>054-260700-
WASHINGTON METRO

CITY           SKY/WX    TMP DP  RH WIND       PRES   REMARKS
WASHINGTON NAT CLOUDY    45  40  82 S7        29.70F
DULLES         CLOUDY    40  39  97 S7        29.68F
ANDREWS AFB    MOCLDY    42  41  96 S7        29.68F
FT BELVOIR     CLOUDY    42  40  93 CALM      29.70F
QUANTICO       CLOUDY    45  38  76 E9        29.72F
COLLEGE PARK*  CLOUDY    43  43 100 CALM      29.70F
LEESBURG*      CLOUDY    41  41 100 N5        29.70S
MANASSAS*      CLOUDY    41  39  93 CALM      29.71F
GAITHERSBURG*  CLOUDY    39  37  93 CALM      29.72F

$$

MDZ006>007-011-014-260700-
BALTIMORE METRO

CITY           SKY/WX    TMP DP  RH WIND       PRES   REMARKS
BWI AIRPORT    CLOUDY    42  40  92 N5        29.69F
MD SCIENCE CTR   N/A     45  37  73 MISG      29.71F
MARTIN STATE   MOCLDY    45  37  76 W5        29.72F
ANNAPOLIS      CLOUDY    44  40  85 CALM      29.68F
FORT MEADE*    CLOUDY    41  39  93 CALM      29.72F

$$

MDZ012-015-019>023-260700-
MARYLAND EASTERN SHORE

CITY           SKY/WX    TMP DP  RH WIND       PRES   REMARKS
OCEAN CITY     CLOUDY    43  40  89 N3        29.70F
SALISBURY      LGT RAIN  42  40  92 N3        29.69F
BAY BRIDGE AP*   N/A    N/A N/A N/A CALM      29.70S
CAMBRIDGE*     MOCLDY    43  39  87 NE3       29.69F
EASTON*        DRIZZLE   44  44 100 SW6       29.73F

$$

MDZ017>025-260700-
SOUTHERN MARYLAND

CITY           SKY/WX    TMP DP  RH WIND       PRES   REMARKS
PATUXENT RIVER CLOUDY    44  41  89 NE10      29.69F
ST INIGOES     CLOUDY    44  40  85 NE6       29.69F
LEONARDTOWN*   CLOUDY    43  39  87 CALM      29.71F

$$

MDZ003>005-260700-
NORTH CENTRAL MARYLAND

CITY           SKY/WX    TMP DP  RH WIND       PRES   REMARKS
FREDERICK*     CLOUDY    43  36  75 CALM      29.73F
HAGERSTOWN APT CLOUDY    41  35  79 CALM      29.70F
WESTMINSTER*   NOT AVBL

$$

MDZ501>502-260700-
WESTERN MARYLAND

CITY           SKY/WX    TMP DP  RH WIND       PRES   REMARKS
OAKLAND*       CLOUDY    32 N/A N/A SE7       29.64S HAZE
CUMBERLAND*    CLOUDY    41  41 100 NE3       29.74F

$$

VAZ025>031-260700-
SHENANDOAH VALLEY

CITY           SKY/WX    TMP DP  RH WIND       PRES   REMARKS
WINCHESTER*    CLOUDY    41  36  81 SW3       29.68F
FRONT ROYAL*   CLOUDY    37  37 100 CALM      29.68F
LURAY*         CLOUDY    41  41 100 NE5       29.69F
NEW MARKET*    CLOUDY    39  38  93 N8        29.69F
STAUNTON*      CLOUDY    41  39  93 CALM      29.69S
WAYNESBORO*    CLOUDY    39  39  99 CALM      29.67S

$$

WVZ021-048>050-054>055-260700-
EASTERN WEST VIRGINIA PANHANDLE

CITY           SKY/WX    TMP DP  RH WIND       PRES   REMARKS
MARTINSBURG    CLOUDY    41  38  89 CALM      29.71R
PETERSBURG*    CLOUDY    40  35  83 CALM      29.72R

$$

VAZ036>039-050-260700-
CENTRAL FOOTHILLS

CITY           SKY/WX    TMP DP  RH WIND       PRES   REMARKS
CHARLOTTESVILL CLOUDY    41  39  93 NE10      29.68F FOG
CULPEPER*      CLOUDY    43  41  93 CALM      29.71F
ORANGE*        CLOUDY    41  41 100 N6        29.71F FOG
GORDONSVILLE*  CLOUDY    40  39  95 NE5       29.69F FOG
WARRENTON*     CLOUDY    41  40  97 CALM      29.70F

$$

VAZ055>057-260700-
NORTH AND CENTRAL PIEDMONT

CITY           SKY/WX    TMP DP  RH WIND       PRES   REMARKS
FREDERICKSBRG* CLOUDY    43  43 100 CALM      29.70F
STAFFORD*      CLOUDY    41  32  70 CALM      29.74F

$$

NCZ024-NYZ072-PAZ021-071-VAZ022-071-260700-
OTHER REGIONAL OBSERVATIONS

CITY           SKY/WX    TMP DP  RH WIND       PRES   REMARKS
NEW YORK CITY  MOCLDY    50  26  39 NE8       29.70F
PHILADELPHIA   MOCLDY    49  34  56 W6        29.69S
PITTSBURGH     CLOUDY    47  26  44 NE8       29.67S
ROANOKE        LGT RAIN  42  42 100 S3        29.67F
RICHMOND       LGT RAIN  45  42  89 N10       29.68F FOG
RALEIGH        FOG       47  46  97 NE9       29.63F VSB 1/2

$$

ANZ530>537-260700-
MARINE OBSERVATIONS

STATION/POSITION TIME  TEMP    WIND        PRES
                       AIR SEA DIR/SP/G
                 (UTC) (F)     (DEG/KT/KT) (MB)
THOMAS PT LIGHT  0600   45 52  130/  3/  4 1005.9F
BALT KEY BRIDGE  0500   44     240/  6/  6 1006.0R
COVE POINT       0500   44      40/ 13/ 14 1006.9F
LEWISETTA        0500   46 57              1005.6F
SOLOMONS ISLAND  0500      54                N/A
PINEY POINT      0500           30/  6/  7   N/A

$$




USA.gov is the U.S. government's official web portal to all federal, state and local government web resources and services.